Temperature
18 17 17 17 17 17 17 17 16 16 16 16 16 16 15 15 15 15 15 14 14 14 14 14 14 14 14 13 13 13 13 13 13 13 13 13 13 13 13 13 13 13 13
17 17 17 17 17 17 17 16 16 16 16 16 16 16 15 15 15 15 14 14 14 14 14 14 14 14 13 13 13 13 13 13 13 13 13 13 13 12 12 12 13 13 13
17 17 17 17 17 17 17 16 16 16 16 16 16 15 15 15 15 14 14 14 14 14 14 14 14 13 13 13 13 13 13 13 13 13 13 12 12 12 12 12 12 12 12
17 17 17 17 17 17 16 16 16 16 16 16 15 15 15 15 14 14 14 14 14 14 13 13 13 13 13 13 13 13 13 13 13 13 12 12 12 12 12 12 12 12 12
17 17 17 17 17 17 17 16 16 16 16 15 15 15 15 15 14 14 14 14 14 13 13 13 13 13 13 13 13 13 13 13 13 12 12 12 12 12 12 12 12 12 12
17 17 17 17 16 16 16 16 16 16 15 15 15 15 15 14 14 14 14 14 14 13 13 13 13 13 13 13 13 13 13 13 12 12 12 12 12 12 12 12 12 12 12
17 17 17 16 16 16 16 16 16 16 15 15 15 15 14 14 14 14 14 14 13 13 13 13 13 13 13 13 13 13 12 12 12 12 12 12 12 12 12 12 12 11 11
17 17 17 16 16 16 16 16 15 15 15 15 15 14 14 14 14 14 14 14 13 13 13 13 13 13 13 13 12 12 12 12 12 12 12 12 12 12 12 12 12 11 11
17 17 17 16 16 16 16 15 15 15 15 15 14 14 14 14 14 14 13 13 13 13 13 13 13 13 13 12 12 12 12 12 12 12 12 12 12 12 12 12 12 12 11
17 17 16 16 16 16 16 15 15 15 15 14 14 14 14 14 13 13 13 13 13 13 13 13 13 13 12 12 12 12 12 12 12 12 12 12 12 12 11 12 11 11 11
17 17 16 16 16 16 15 15 15 14 14 14 14 14 13 13 13 13 13 13 13 13 13 13 13 13 12 12 12 12 12 12 12 12 12 12 11 11 11 11 11 11 11
16 16 16 16 15 15 15 15 15 14 14 14 13 13 13 13 13 13 13 12 12 12 12 12 12 12 12 12 12 12 12 12 12 11 11 11 11 11 11 11 11 11 11
16 16 16 15 15 15 15 15 14 14 14 13 13 13 13 13 13 12 12 12 12 12 12 12 12 12 12 12 12 11 11 11 11 11 11 11 11 11 11 11 11 11 11
16 15 15 15 15 15 14 14 14 14 13 13 13 13 12 12 12 12 12 12 12 12 12 12 12 12 11 11 11 11 11 11 11 11 11 11 11 11 10 10 10 10 10
15 15 15 15 15 14 14 14 13 13 13 13 13 13 12 12 12 12 12 12 12 11 11 11 11 11 11 11 11 11 11 11 11 11 10 10 10 10 10 10 10 10 10
15 15 15 15 14 14 14 14 13 13 13 12 12 12 12 12 12 12 12 11 11 11 11 11 11 11 11 11 10 10 10 10 10 10 10 10 10 10 10 10 10 10 10
15 15 15 15 14 14 14 13 13 13 12 12 12 12 12 12 12 11 11 11 11 11 11 11 10 11 10 10 10 10 10 10 10 10 10 10 10 10 9 9 9 9 9
15 15 14 14 14 14 13 13 13 12 12 12 12 12 12 11 11 11 11 11 11 10 10 10 10 10 10 10 10 9 9 9 9 9 9 9 9 9 9 9 9 9 9
15 14 14 14 14 13 13 13 12 12 12 12 11 11 11 11 11 11 11 10 10 10 10 10 10 10 10 9 9 9 9 9 9 9 9 9 9 9 9 9 9 9 9
14 14 14 13 13 13 13 12 12 12 11 11 11 11 11 10 10 10 10 10 10 10 9 9 9 9 9 9 9 8 9 9 9 8 8 8 8 8 8 8 8 8 8
14 13 13 13 13 12 12 12 12 11 11 11 11 10 10 10 10 10 10 10 9 9 9 9 9 9 9 9 8 8 8 8 8 8 8 8 8 8 8 7 7 7 7
13 13 13 13 12 12 12 11 11 11 11 10 10 10 10 10 10 9 9 9 9 9 9 8 8 8 8 8 8 8 8 7 7 7 7 7 7 7 7 7 7 7 7
12 12 12 12 12 11 11 11 11 10 10 10 10 10 9 9 9 9 9 9 8 8 8 8 8 8 8 8 7 7 7 7 7 7 7 6 6 6 6 7 6 6 6
12 12 12 11 11 11 11 10 10 10 10 10 9 9 9 9 9 9 8 8 8 8 8 8 8 8 7 7 7 7 7 7 6 6 6 6 6 6 6 6 6 6 6
11 11 11 11 11 10 10 10 10 9 9 9 9 9 8 8 8 8 8 8 8 7 7 7 7 7 7 7 7 6 6 6 6 6 6 6 6 5 5 5 5 5 5
11 11 10 10 10 10 10 9 9 9 9 9 8 8 8 8 8 8 7 7 7 7 7 7 7 6 6 6 6 6 6 6 6 5 5 5 5 5 5 5 5 5 5
Wind_Speed
5 3 2 3 3 3 4 4 4 3 3 2 2 2 1 1 1 1 2 3 4 4 4 3 3 3 3 3 3 3 4 3 2 3 3 4 4 5 4 4 4 5 6
4 3 3 3 4 3 3 4 4 3 3 3 2 2 2 1 1 1 2 2 2 3 3 3 3 3 3 3 3 3 2 2 2 2 2 3 4 4 4 4 3 4 4
7 5 4 4 4 4 4 4 4 4 3 3 3 3 3 3 2 1 0 1 2 2 3 3 3 3 3 3 2 3 3 2 1 2 2 2 1 2 3 3 3 3 3
6 6 6 5 5 5 4 4 4 4 4 4 5 5 3 2 2 1 1 0 1 2 3 3 3 3 2 3 2 2 2 3 1 1 1 1 2 2 1 3 3 3 3
6 6 6 6 5 5 5 4 4 4 4 4 5 5 3 2 1 1 1 1 0 1 1 3 3 2 2 2 2 2 2 2 2 2 1 1 2 1 2 1 3 3 2
4 4 3 3 3 3 4 4 5 4 4 4 4 5 5 3 3 2 1 1 0 0 1 2 2 2 2 2 2 2 2 2 2 2 2 2 2 2 2 2 1 2 2
4 4 4 3 3 3 4 4 5 4 4 5 4 4 5 5 4 3 3 2 1 1 1 1 2 2 2 2 2 2 2 2 2 2 2 2 2 2 2 2 1 1 2
5 5 5 5 5 4 4 5 5 4 4 5 4 3 4 3 3 3 3 3 2 2 2 1 2 2 2 2 2 2 2 2 2 2 2 2 2 2 3 3 2 0 1
5 5 5 5 5 5 5 5 6 5 4 5 4 3 3 3 3 3 2 2 2 2 2 2 2 1 2 2 2 2 2 2 2 2 2 1 1 1 2 2 3 3 1
4 4 4 5 5 5 5 5 5 5 4 4 4 3 3 3 3 3 3 3 2 1 2 2 1 1 1 2 2 2 1 2 1 2 2 1 1 1 1 2 2 2 3
5 4 4 4 4 3 4 4 4 3 2 3 3 3 2 2 3 3 3 3 2 2 2 2 2 1 1 2 2 2 2 2 2 1 2 2 2 1 1 1 1 1 2
4 4 4 4 4 4 3 4 4 4 3 3 3 3 2 2 2 2 2 2 2 2 2 2 2 2 2 2 2 2 2 2 2 2 2 2 1 1 1 2 2 2 2
2 3 3 4 4 4 4 4 4 4 4 4 3 3 2 2 2 3 2 2 2 2 2 2 2 2 2 2 2 3 3 3 3 3 3 3 2 2 1 2 2 2 2
3 3 3 4 4 4 4 4 4 3 3 4 4 3 3 3 3 2 2 2 3 2 2 2 2 2 2 2 2 2 2 2 2 2 2 3 3 3 3 2 2 2 2
3 4 5 4 4 4 4 4 3 3 3 4 4 4 3 3 2 2 3 2 2 2 2 2 1 1 2 2 2 2 3 3 2 2 2 3 4 4 3 2 2 3 2
5 5 5 5 6 6 5 5 4 3 3 4 4 4 3 3 3 3 3 2 2 1 1 2 2 2 2 2 3 3 2 2 2 2 2 3 3 3 3 4 3 4 4
6 6 6 7 7 6 6 6 5 3 3 3 3 3 3 3 3 3 2 3 2 2 2 2 2 2 3 3 3 3 2 3 3 3 3 2 2 2 2 3 3 4 5
4 5 5 5 4 4 4 4 4 4 3 3 3 3 3 3 3 3 3 3 2 2 2 2 2 2 3 3 3 3 2 2 3 3 4 3 3 3 3 2 2 3 4
4 4 4 4 3 4 4 4 4 3 3 3 3 3 3 4 4 4 4 3 2 2 2 2 2 2 3 3 2 2 1 2 2 3 3 3 3 4 3 2 3 3 4
1 2 2 3 3 3 4 5 4 4 4 4 3 3 3 4 5 5 4 2 3 3 2 2 2 3 3 4 3 3 2 2 2 2 2 3 3 4 3 3 3 4 4
0 2 3 3 3 3 4 4 4 4 4 3 2 2 3 4 4 3 3 3 3 2 1 2 2 2 3 4 4 4 3 3 2 2 3 3 4 4 4 3 3 5 4
0 2 3 2 2 3 4 4 4 4 3 3 2 2 3 3 3 3 3 3 3 2 2 1 2 2 3 3 4 5 4 3 3 3 3 4 5 5 4 3 4 4 2
1 1 3 2 1 2 4 4 4 2 2 2 2 3 2 2 3 4 4 3 3 3 2 2 3 3 2 3 4 5 5 4 3 3 4 4 4 3 2 3 3 2 1
2 2 3 2 1 2 2 3 2 2 3 3 3 3 2 2 2 3 3 3 3 3 3 3 3 3 2 2 2 3 3 4 3 2 2 3 2 1 1 2 2 2 2
1 2 3 3 3 2 2 2 2 2 3 3 3 2 2 2 2 2 2 3 4 4 4 4 4 3 4 5 5 3 3 3 3 1 0 0 1 1 1 1 2 2 1
2 2 2 3 3 3 2 2 2 3 3 3 3 2 2 2 2 2 1 3 3 4 5 4 4 4 6 6 5 6 5 5 4 2 1 2 2 3 3 3 3 2 3
Wind_Direction
242 228 196 158 132 132 141 145 142 149 135 123 128 123 128 107 78 62 87 106 111 114 112 108 101 99 106 110 100 89 69 50 43 63 38 24 31 39 30 24 32 34 37
245 221 186 159 154 153 155 156 159 158 164 155 146 138 133 125 121 67 59 83 108 122 128 123 121 116 110 102 104 103 89 50 44 77 70 23 4 8 18 17 27 20 24
229 219 202 187 168 168 175 174 173 162 160 146 115 99 77 60 52 46 41 24 99 110 114 127 129 131 131 141 143 134 125 129 35 60 111 119 217 325 346 10 17 13 18
229 216 205 196 190 193 179 169 160 156 154 145 141 138 142 155 190 195 206 205 97 115 126 128 128 136 142 150 166 147 144 136 142 39 55 120 156 141 338 342 357 6 12
220 212 207 202 197 187 173 167 151 152 152 147 151 149 149 165 149 131 132 139 134 125 130 136 134 148 160 164 156 140 140 145 155 158 132 85 64 88 145 302 333 351 351
207 197 189 176 175 167 161 154 148 149 149 154 154 161 163 159 146 144 153 162 157 176 144 147 149 162 174 180 180 172 161 164 156 157 153 159 158 177 164 209 279 317 327
184 178 171 169 172 166 163 160 154 160 162 162 169 176 174 169 173 179 182 177 182 212 223 173 173 177 190 187 171 169 181 178 167 170 187 194 195 169 158 159 204 295 320
187 186 186 183 184 175 164 163 165 170 171 174 184 186 177 178 190 190 185 188 200 213 207 187 182 182 181 184 171 177 188 179 179 180 182 191 201 179 171 169 160 139 333
195 191 186 183 182 179 175 176 174 171 177 182 182 184 184 183 191 190 185 189 196 197 179 172 181 180 182 176 171 182 194 178 183 184 183 189 207 190 193 181 176 170 205
199 194 188 187 186 184 177 171 171 178 180 178 181 179 185 187 183 175 185 195 194 182 168 173 184 190 186 175 167 176 190 161 185 178 174 196 208 192 195 187 190 184 183
202 197 198 192 180 159 153 160 162 156 159 170 171 165 174 171 166 178 199 197 184 181 185 192 191 190 188 184 170 186 182 182 200 188 184 217 201 184 197 173 168 179 168
199 191 186 175 164 159 154 158 163 165 176 172 160 164 165 158 167 191 207 192 188 196 192 185 178 188 194 188 180 197 197 195 202 209 195 221 205 199 198 175 184 192 188
181 168 164 172 174 170 165 165 170 179 175 161 154 153 158 173 188 196 191 182 182 186 185 175 180 193 203 200 200 203 205 203 210 211 210 221 189 205 206 195 199 201 198
183 174 180 188 184 175 173 177 186 185 173 164 163 172 187 196 202 198 183 183 182 182 192 193 200 206 208 204 206 207 207 208 218 218 218 219 204 208 202 205 206 191 181
195 195 190 192 188 182 183 186 191 189 174 170 175 192 194 183 177 187 191 188 185 192 191 188 206 212 213 209 198 202 201 200 207 221 228 231 221 220 210 209 199 181 179
207 202 195 190 193 193 191 192 197 196 176 181 196 194 178 173 184 192 180 175 186 193 182 198 206 219 236 236 221 201 195 205 204 227 249 249 231 238 235 236 218 195 190
210 208 205 201 201 198 190 192 198 183 176 194 202 193 181 186 201 197 173 185 194 184 196 212 212 228 251 251 240 225 198 203 217 224 235 254 252 247 233 247 245 234 231
213 216 211 208 203 191 183 177 170 170 180 192 201 200 189 197 200 191 197 203 193 193 207 219 223 230 258 262 245 225 208 211 228 225 219 224 248 238 229 219 244 254 253
215 210 207 199 183 181 174 160 165 172 180 196 208 209 205 201 194 199 207 202 183 193 211 213 208 215 253 261 247 210 192 211 241 241 228 225 235 253 249 208 234 263 276
223 176 156 141 161 183 165 159 172 178 201 209 211 211 207 204 201 206 205 195 185 198 204 219 222 219 237 246 237 215 192 213 247 261 252 244 243 258 249 223 221 245 263
172 140 145 156 177 173 159 168 181 204 216 205 194 203 209 210 201 197 196 181 179 174 193 228 255 247 246 247 242 224 206 213 225 241 249 251 254 256 249 245 227 243 251
82 156 158 165 168 160 159 176 211 219 196 183 191 208 213 208 189 172 181 179 172 170 194 230 272 275 266 255 246 239 239 232 214 234 239 244 250 250 248 246 254 262 266
188 174 159 153 159 169 168 192 229 216 190 183 208 221 221 212 183 174 180 183 181 187 205 217 241 262 266 260 256 249 248 248 240 236 244 250 249 245 249 259 263 257 216
196 169 145 152 192 201 196 211 221 197 183 198 222 220 210 217 199 187 184 188 199 204 212 223 237 251 259 261 257 242 247 249 257 251 245 256 254 240 255 272 261 234 223
209 167 169 185 207 206 219 224 193 181 197 214 221 223 212 208 203 198 204 206 214 213 217 221 221 229 250 256 254 243 235 224 223 212 201 204 236 245 269 277 263 248 239
187 180 190 199 206 200 226 240 203 187 197 222 222 214 209 210 202 194 259 266 251 253 250 241 234 241 250 259 257 255 251 240 216 196 211 224 223 231 238 244 251 248 245
Height
1519 1520 1521 1522 1523 1523 1524 1525 1526 1527 1528 1528 1529 1530 1531 1532 1532 1533 1533 1534 1534 1535 1535 1535 1536 1536 1536 1536 1536 1536 1536 1536 1536 1537 1537 1537 1537 1537 1537 1537 1537 1537 1537
1517 1518 1519 1520 1521 1522 1523 1524 1525 1526 1527 1528 1529 1530 1531 1532 1532 1533 1533 1534 1534 1535 1535 1535 1536 1536 1536 1536 1537 1537 1537 1537 1537 1537 1537 1537 1539 1537 1537 1537 1537 1537 1537
1514 1515 1517 1518 1519 1520 1522 1523 1525 1526 1527 1528 1529 1530 1531 1531 1532 1532 1533 1533 1534 1534 1534 1535 1535 1536 1536 1536 1537 1537 1537 1537 1538 1538 1538 1538 1538 1538 1538 1538 1538 1538 1537
1511 1513 1514 1515 1517 1518 1520 1522 1523 1525 1526 1527 1528 1528 1529 1530 1530 1531 1532 1532 1533 1533 1534 1534 1535 1535 1536 1536 1536 1537 1537 1537 1537 1538 1538 1538 1538 1538 1537 1538 1538 1538 1537
1508 1510 1511 1513 1515 1517 1519 1521 1522 1523 1524 1525 1527 1528 1528 1529 1530 1530 1531 1531 1532 1532 1533 1533 1534 1534 1535 1535 1536 1536 1536 1537 1537 1537 1537 1537 1537 1537 1537 1537 1537 1537 1537
1506 1507 1509 1511 1513 1515 1517 1519 1520 1522 1523 1524 1525 1526 1527 1528 1528 1529 1529 1530 1530 1531 1532 1532 1533 1533 1534 1534 1535 1535 1536 1536 1536 1536 1536 1536 1536 1536 1536 1536 1536 1536 1536
1503 1505 1507 1509 1511 1513 1515 1516 1518 1519 1521 1522 1523 1525 1526 1526 1527 1527 1528 1528 1529 1529 1530 1531 1531 1532 1533 1533 1534 1534 1534 1534 1535 1535 1535 1535 1535 1535 1535 1535 1534 1534 1535
1501 1503 1505 1507 1509 1511 1513 1514 1516 1517 1519 1520 1522 1523 1524 1524 1525 1526 1526 1527 1527 1528 1528 1529 1530 1530 1531 1531 1532 1532 1532 1533 1533 1533 1534 1534 1534 1534 1534 1534 1534 1533 1533
1500 1501 1503 1505 1507 1509 1510 1512 1514 1515 1517 1518 1519 1520 1521 1522 1523 1524 1524 1525 1526 1526 1527 1527 1528 1528 1529 1529 1530 1530 1531 1531 1531 1531 1532 1532 1532 1532 1532 1532 1532 1532 1531
1498 1500 1501 1503 1505 1507 1509 1510 1512 1513 1515 1516 1517 1518 1519 1520 1521 1521 1522 1523 1524 1524 1525 1525 1526 1526 1527 1527 1527 1528 1528 1529 1529 1529 1530 1530 1530 1530 1530 1530 1530 1530 1530
1497 1498 1500 1502 1504 1505 1507 1509 1510 1512 1513 1514 1515 1516 1517 1518 1518 1519 1520 1520 1521 1522 1522 1523 1524 1524 1524 1525 1525 1526 1526 1526 1526 1527 1527 1527 1528 1528 1528 1528 1528 1528 1528
1496 1497 1499 1500 1502 1503 1505 1507 1508 1510 1511 1512 1513 1514 1514 1515 1516 1516 1517 1518 1519 1520 1520 1521 1521 1522 1522 1522 1523 1523 1523 1523 1524 1524 1524 1525 1525 1525 1525 1525 1526 1526 1526
1495 1496 1497 1499 1500 1502 1503 1505 1507 1508 1509 1510 1510 1511 1512 1513 1513 1514 1515 1516 1516 1517 1518 1518 1519 1519 1519 1520 1520 1520 1520 1521 1521 1521 1521 1522 1522 1522 1522 1523 1523 1523 1523
1493 1494 1495 1497 1499 1500 1502 1503 1505 1506 1507 1507 1508 1509 1509 1510 1511 1512 1513 1513 1514 1514 1515 1516 1516 1516 1517 1517 1517 1517 1517 1518 1518 1518 1518 1519 1519 1519 1519 1519 1520 1520 1520
1491 1492 1493 1495 1497 1498 1500 1501 1502 1503 1504 1505 1505 1506 1507 1508 1508 1509 1510 1511 1511 1512 1512 1513 1513 1514 1514 1514 1514 1514 1514 1514 1514 1515 1515 1515 1516 1516 1516 1517 1517 1517 1517
1489 1491 1492 1493 1495 1496 1497 1499 1500 1501 1502 1502 1503 1503 1504 1505 1506 1506 1507 1508 1508 1509 1509 1510 1510 1510 1510 1510 1510 1511 1511 1510 1510 1511 1511 1512 1512 1512 1513 1514 1514 1514 1514
1487 1489 1490 1491 1493 1494 1495 1496 1497 1498 1499 1500 1500 1501 1501 1502 1502 1503 1504 1504 1505 1506 1506 1506 1507 1507 1507 1507 1507 1507 1507 1507 1507 1507 1508 1508 1508 1509 1509 1510 1510 1510 1510
1485 1486 1488 1489 1490 1491 1492 1494 1495 1496 1496 1497 1497 1498 1498 1499 1499 1500 1501 1501 1501 1502 1502 1502 1503 1503 1503 1503 1503 1503 1504 1503 1504 1504 1504 1504 1504 1505 1506 1506 1506 1506 1506
1484 1484 1485 1486 1487 1488 1490 1491 1492 1493 1494 1494 1494 1494 1495 1496 1496 1496 1497 1497 1498 1498 1498 1499 1499 1499 1499 1499 1500 1500 1499 1499 1499 1500 1500 1500 1501 1501 1502 1502 1502 1502 1502
1482 1483 1483 1484 1485 1486 1487 1488 1489 1490 1490 1491 1491 1492 1492 1492 1493 1493 1493 1494 1494 1494 1494 1495 1495 1495 1496 1496 1496 1496 1496 1495 1495 1496 1496 1496 1497 1497 1498 1498 1498 1497 1497
1480 1481 1482 1482 1483 1484 1485 1485 1486 1487 1488 1488 1489 1489 1489 1489 1489 1489 1490 1490 1490 1490 1491 1491 1491 1491 1492 1492 1492 1492 1492 1491 1491 1491 1491 1492 1492 1493 1493 1494 1494 1493 1494
1478 1479 1480 1480 1481 1482 1482 1482 1483 1484 1485 1485 1485 1486 1485 1485 1485 1486 1486 1486 1486 1486 1486 1487 1487 1487 1487 1487 1487 1487 1487 1487 1487 1487 1487 1487 1488 1489 1489 1489 1489 1490 1490
1476 1477 1477 1478 1479 1479 1480 1480 1480 1481 1481 1481 1482 1482 1482 1482 1482 1482 1482 1482 1482 1482 1482 1482 1482 1482 1483 1483 1483 1483 1483 1483 1483 1483 1483 1483 1484 1484 1484 1485 1485 1485 1485
1474 1475 1475 1475 1476 1476 1477 1477 1478 1478 1478 1478 1478 1478 1478 1478 1478 1478 1478 1478 1478 1478 1478 1478 1478 1478 1478 1479 1479 1479 1479 1479 1479 1479 1479 1479 1479 1479 1480 1480 1480 1480 1480
1472 1472 1473 1473 1473 1474 1474 1475 1475 1475 1475 1475 1475 1474 1474 1474 1474 1474 1474 1474 1475 1475 1474 1474 1474 1474 1474 1475 1475 1475 1474 1474 1474 1474 1474 1474 1474 1474 1475 1475 1475 1476 1476
1469 1470 1470 1470 1471 1471 1471 1472 1472 1472 1471 1471 1471 1471 1471 1470 1470 1470 1470 1470 1471 1471 1471 1470 1471 1470 1471 1470 1470 1470 1470 1470 1470 1470 1469 1469 1470 1470 1470 1470 1471 1471 1471